EW5960 Weather Reports


time (UTC)temp
F
wind
direction
speed
knots
gust
knots
rain 1hr
in
rain 24hr
in
rain mn
in
humidity
%
barometer
mb
20260510023015 45 0.0 0.0 0.00 0.07 0.07 56 1012.5
20260510022015 45 350 0.0 0.9 0.00 0.07 0.07 55 1012.2
20260510021015 45 350 0.0 0.9 0.00 0.07 0.07 55 1012.1
20260510020016 46 0.0 0.0 0.00 0.07 0.07 51 1011.9
20260510015015 47 0.0 0.0 0.00 0.07 0.07 48 1011.7
20260510014015 47 0.0 0.0 0.00 0.07 0.07 48 1011.5
20260510013015 48 0.0 0.0 0.00 0.07 0.07 48 1011.2
20260510012015 48 0.0 0.9 0.00 0.07 0.07 47 1011.0
20260510011015 49 351 0.0 0.9 0.00 0.07 0.07 47 1010.8
20260510010055 50 353 0.9 2.6 0.00 0.07 0.07 44 1010.7
20260510005015 51 319 0.9 4.3 0.00 0.07 0.07 43 1010.6
20260510004015 52 327 1.7 5.2 0.00 0.07 0.07 42 1010.5
20260510003015 52 324 2.6 7.0 0.00 0.07 0.07 42 1010.4
20260510002015 52 323 3.5 7.0 0.00 0.07 0.07 41 1010.3
20260510001015 53 328 3.5 9.6 0.00 0.07 0.07 40 1010.3
20260510000056 54 327 3.5 7.8 0.00 0.07 0.07 39 1010.1
20260509235055 54 327 3.5 8.7 0.00 0.07 0.07 39 1010.1
20260509234015 53 328 4.3 10.4 0.00 0.07 0.07 40 1010.0
20260509233015 53 343 2.6 7.0 0.00 0.07 0.07 39 1009.8
20260509232015 54 327 3.5 12.2 0.00 0.07 0.07 38 1009.9
20260509231015 54 328 6.1 12.2 0.00 0.07 0.07 38 1009.7
20260509230015 54 332 6.1 12.2 0.00 0.07 0.07 38 1009.5
20260509225015 55 325 3.5 8.7 0.00 0.07 0.07 37 1009.3
20260509224015 55 324 3.5 9.6 0.00 0.07 0.07 37 1009.2
20260509223015 56 333 5.2 12.2 0.00 0.07 0.07 36 1009.1
20260509222020 56 331 3.5 9.6 0.00 0.07 0.07 37 1008.9
20260509221015 56 327 3.5 9.6 0.00 0.07 0.07 36 1008.8
20260509220136 55 322 2.6 9.6 0.00 0.07 0.07 36 1008.6
20260509215015 56 294 1.7 8.7 0.00 0.07 0.07 37 1008.6
20260509214014 55 335 2.6 9.6 0.00 0.07 0.07 38 1008.5
20260509213015 56 300 1.7 8.7 0.00 0.07 0.07 39 1008.4
20260509212015 55 275 1.7 8.7 0.00 0.07 0.07 38 1008.2
20260509211055 55 325 2.6 14.8 0.00 0.07 0.07 38 1008.0
20260509210015 56 328 4.3 11.3 0.00 0.07 0.07 38 1008.1
20260509205015 57 281 1.7 8.7 0.00 0.07 0.07 37 1008.0
20260509204015 58 327 4.3 9.6 0.00 0.07 0.07 35 1007.9
20260509203015 58 231 2.6 11.3 0.00 0.07 0.07 37 1007.9
20260509202015 57 309 3.5 10.4 0.00 0.07 0.07 38 1007.6
20260509201015 57 331 4.3 11.3 0.00 0.07 0.07 36 1007.6
20260509200014 58 329 5.2 10.4 0.00 0.07 0.07 34 1007.6
20260509195015 60 307 1.7 7.0 0.00 0.07 0.07 37 1007.5
20260509194017 58 310 1.7 6.1 0.00 0.07 0.07 36 1007.4
20260509193016 58 302 3.5 10.4 0.00 0.07 0.07 37 1007.1
20260509192017 57 285 2.6 12.2 0.00 0.07 0.07 38 1007.1
20260509191017 57 275 2.6 7.8 0.00 0.07 0.07 37 1007.1
20260509190014 58 293 2.6 10.4 0.00 0.07 0.07 38 1006.9
20260509185015 58 315 2.6 8.7 0.00 0.07 0.07 38 1006.9
20260509184017 58 321 2.6 7.8 0.00 0.07 0.07 39 1006.8
20260509182016 55 323 2.6 8.7 0.00 0.07 0.07 42 1006.6
20260509181016 56 288 1.7 7.0 0.00 0.07 0.07 45 1006.6
20260509180017 55 295 1.7 7.8 0.00 0.07 0.07 45 1006.5
20260509175016 55 318 2.6 9.6 0.00 0.07 0.07 44 1006.3
20260509174016 55 298 2.6 9.6 0.00 0.07 0.07 49 1006.3
20260509173016 54 325 3.5 9.6 0.00 0.07 0.07 48 1006.1
20260509172016 55 333 1.7 7.0 0.00 0.07 0.07 49 1006.2
20260509171016 53 292 1.7 7.8 0.00 0.07 0.07 52 1006.0
20260509165016 54 324 1.7 8.7 0.00 0.07 0.07 51 1005.9
20260509164016 55 296 1.7 5.2 0.00 0.07 0.07 53 1005.8
20260509163017 54 271 1.7 14.8 0.00 0.07 0.07 52 1005.7
20260509162016 54 312 2.6 9.6 0.00 0.07 0.07 52 1005.7
20260509161057 54 5 3.5 9.6 0.00 0.07 0.07 54 1005.6
20260509160017 53 283 1.7 6.1 0.00 0.07 0.07 58 1005.5
20260509155016 53 328 4.3 11.3 0.00 0.07 0.07 62 1005.5
20260509154017 52 290 2.6 7.8 0.00 0.07 0.07 65 1005.3
20260509153016 51 315 2.6 11.3 0.00 0.07 0.07 69 1005.1
20260509152016 51 295 0.9 4.3 0.00 0.07 0.07 73 1005.3
20260509151056 50 274 0.9 5.2 0.00 0.07 0.07 74 1005.0
20260509150016 49 322 3.5 7.8 0.00 0.07 0.07 74 1004.8
20260509145016 49 103 0.9 6.1 0.00 0.07 0.07 78 1004.7
20260509144016 48 313 1.7 7.8 0.00 0.07 0.07 78 1004.5
20260509143056 47 308 1.7 7.0 0.00 0.07 0.07 83 1004.5
20260509142021 47 268 0.9 3.5 0.00 0.07 0.07 85 1004.4
20260509141016 47 250 0.9 5.2 0.00 0.07 0.07 89 1004.4
20260509140016 46 272 0.9 5.2 0.00 0.07 0.07 91 1004.3
20260509135016 45 256 0.9 4.3 0.00 0.07 0.07 92 1004.3
20260509134016 45 273 0.9 3.5 0.00 0.07 0.07 94 1004.2
20260509133016 44 224 0.0 3.5 0.00 0.07 0.07 95 1004.1
20260509132016 43 269 0.0 2.6 0.00 0.07 0.07 95 1004.0
20260509131016 42 261 0.0 1.7 0.02 0.07 0.07 95 1003.9
20260509130016 42 317 0.0 1.7 0.04 0.07 0.07 95 1003.8
20260509125056 42 317 0.9 4.3 0.07 0.07 0.07 94 1003.8
20260509124016 42 86 0.9 3.5 0.07 0.07 0.07 94 1003.8
20260509123016 42 119 0.9 1.7 0.07 0.07 0.07 93 1003.6
20260509122016 42 120 0.0 2.6 0.07 0.07 0.07 92 1003.7
20260509121016 42 121 0.0 0.9 0.05 0.05 0.05 91 1003.8
20260509120016 42 125 0.9 3.5 0.03 0.03 0.03 89 1003.9
20260509115016 43 317 1.7 7.0 0.00 0.00 0.00 87 1004.0
20260509114016 44 327 3.5 8.7 0.00 0.00 0.00 83 1003.7
20260509113016 45 320 1.7 7.0 0.00 0.00 0.00 80 1003.7
20260509112016 46 329 2.6 7.8 0.00 0.00 0.00 76 1003.5
20260509111056 47 325 2.6 7.0 0.00 0.00 0.00 72 1003.3
20260509110016 48 340 2.6 9.6 0.00 0.00 0.00 69 1003.1
20260509105016 48 333 2.6 7.8 0.00 0.00 0.00 62 1002.9
20260509104016 47 332 0.9 3.5 0.00 0.00 0.00 57 1002.7
20260509103015 46 239 0.0 0.9 0.00 0.00 0.00 57 1002.5
20260509102016 46 252 0.0 1.7 0.00 0.00 0.00 57 1002.4
20260509101016 47 0.0 0.0 0.00 0.00 0.00 57 1002.3
20260509100016 47 0.0 0.0 0.00 0.00 0.00 55 1002.1
20260509095016 46 254 0.0 0.9 0.00 0.00 0.00 57 1002.3
20260509094015 46 0.0 0.0 0.00 0.00 0.00 57 1002.3
20260509093016 46 0.0 0.0 0.00 0.00 0.00 57 1002.3
20260509092016 46 0.0 0.0 0.00 0.00 0.00 57 1002.4
20260509091015 46 0.0 0.0 0.00 0.00 0.00 58 1002.4
20260509090015 46 0.0 0.0 0.00 0.00 0.00 59 1002.4
20260509085056 46 0.0 0.0 0.00 0.00 0.00 58 1002.4
20260509084016 47 0.0 0.0 0.00 0.00 0.00 56 1002.4
20260509083016 47 0.0 0.0 0.00 0.00 0.00 55 1002.2
20260509082015 47 0.0 0.0 0.00 0.00 0.00 56 1002.3
20260509081016 47 0.0 0.0 0.00 0.00 0.00 54 1002.2
20260509080016 48 0.0 0.0 0.00 0.00 0.00 54 1002.2
20260509075015 48 0.0 0.0 0.00 0.00 0.00 53 1002.4
20260509074015 49 0.0 0.0 0.00 0.00 0.00 52 1002.3
20260509073015 49 0.0 0.9 0.00 0.00 0.00 53 1002.4
20260509072056 49 234 0.0 1.7 0.00 0.00 0.00 53 1002.7
20260509071015 49 0.0 1.7 0.00 0.00 0.00 54 1002.7
20260509070015 49 247 0.0 1.7 0.00 0.00 0.00 54 1002.7
20260509065015 49 249 0.0 1.7 0.00 0.00 0.00 54 1002.8
20260509064016 49 0.0 0.9 0.00 0.00 0.00 54 1002.3
20260509063015 50 229 0.0 0.9 0.00 0.00 0.00 53 1002.5
20260509062015 50 276 0.0 0.9 0.00 0.00 0.00 53 1002.4
20260509061056 50 201 0.0 1.7 0.00 0.00 0.00 53 1002.6
20260509060016 49 148 0.0 0.9 0.00 0.00 0.00 54 1002.5
20260509055015 49 236 0.0 1.7 0.00 0.00 0.00 56 1002.1
20260509054136 48 224 0.0 1.7 0.00 0.00 0.00 57 1002.1
20260509053055 49 304 0.9 2.6 0.00 0.00 0.00 57 1002.1
20260509052015 50 262 0.9 1.7 0.00 0.00 0.00 55 1002.1
20260509051015 49 219 0.9 2.6 0.00 0.00 0.00 55 1001.8
20260509050015 49 0.0 0.0 0.00 0.00 0.00 56 1001.7
20260509045015 50 0.0 0.0 0.00 0.00 0.00 55 1001.5
20260509044015 50 0.0 0.0 0.00 0.00 0.00 55 1001.6
20260509043015 50 137 0.0 1.7 0.00 0.00 0.00 57 1001.7
20260509042015 51 137 1.7 1.7 0.00 0.00 0.00 56 1001.7
20260509041136 51 0.0 0.0 0.00 0.00 0.00 55 1001.8
20260509040015 52 0.0 0.0 0.00 0.00 0.00 54 1002.0
20260509035015 52 137 0.9 1.7 0.00 0.00 0.00 53 1002.0
20260509034015 52 138 0.9 1.7 0.00 0.00 0.00 53 1002.0
20260509033016 53 137 0.9 0.9 0.00 0.00 0.00 52 1002.2
20260509032015 53 138 0.9 1.7 0.00 0.00 0.00 52 1002.1
20260509031015 54 135 0.9 1.7 0.00 0.00 0.00 52 1002.3
20260509030015 54 135 0.9 1.7 0.00 0.00 0.00 51 1002.3
20260509024015 53 142 2.6 3.5 0.00 0.00 0.00 56 1002.4